<?xml version="1.0" encoding="UTF-8" standalone="no" ?>
<gpx xmlns="http://www.topografix.com/GPX/1/1" xmlns:xsi="http://www.w3.org/2001/XMLSchema-instance" xsi:schemaLocation="http://www.topografix.com/GPX/1/1 http://www.topografix.com/GPX/1/1/gpx.xsd" version="1.1" creator="VisuGPX - https://www.visugpx.com">
  <metadata>
    <name>Parcours VTT FFC Saillans</name>
  </metadata>
  <trk>
    <name><![CDATA[VTT N°10 noir - Chapelle des Sadoux - 31 km - Déniv 980 m]]></name>
    <extensions>
      <line xmlns="http://www.topografix.com/GPX/gpx_style/0/2">
        <color>000000</color>
        <width>4</width>
      </line>
    </extensions>
    <trkseg>
      <trkpt lat="44.69689" lon="5.19963">
        <ele>269</ele>
        <time>2022-11-17T10:16:54Z</time>
        <extensions>
          <visugpx:TrkExtension xmlns:visugpx="https://www.visugpx.com/editgpx/">
            <visugpx:node>1</visugpx:node>
            </visugpx:TrkExtension>
        </extensions>
      </trkpt>
      <trkpt lat="44.69681" lon="5.20046">
        <ele>269</ele>
      </trkpt>
      <trkpt lat="44.69672" lon="5.20128">
        <ele>268</ele>
        <time>2022-11-17T10:16:54Z</time>
      </trkpt>
      <trkpt lat="44.69677" lon="5.20214">
        <ele>267</ele>
      </trkpt>
      <trkpt lat="44.69681" lon="5.203">
        <ele>269</ele>
        <time>2022-11-17T10:16:54Z</time>
      </trkpt>
      <trkpt lat="44.69677" lon="5.2032">
        <ele>271</ele>
        <time>2022-11-17T10:16:54Z</time>
      </trkpt>
      <trkpt lat="44.6967" lon="5.20338">
        <ele>272</ele>
        <time>2022-11-17T10:16:54Z</time>
      </trkpt>
      <trkpt lat="44.69633" lon="5.2039">
        <ele>273</ele>
        <time>2022-11-17T10:16:54Z</time>
      </trkpt>
      <trkpt lat="44.69609" lon="5.2041">
        <ele>273</ele>
        <time>2022-11-17T10:16:54Z</time>
      </trkpt>
      <trkpt lat="44.69512" lon="5.20463">
        <ele>272</ele>
      </trkpt>
      <trkpt lat="44.69463" lon="5.20489">
        <ele>271</ele>
      </trkpt>
      <trkpt lat="44.69414" lon="5.20515">
        <ele>271</ele>
        <time>2022-11-17T10:16:54Z</time>
      </trkpt>
      <trkpt lat="44.69316" lon="5.20522">
        <ele>273</ele>
        <time>2022-11-17T10:16:54Z</time>
      </trkpt>
      <trkpt lat="44.69299" lon="5.20513">
        <ele>273</ele>
        <time>2022-11-17T10:16:54Z</time>
      </trkpt>
      <trkpt lat="44.69342" lon="5.2041">
        <ele>270</ele>
      </trkpt>
      <trkpt lat="44.69384" lon="5.20308">
        <ele>271</ele>
      </trkpt>
      <trkpt lat="44.69427" lon="5.20205">
        <ele>273</ele>
      </trkpt>
      <trkpt lat="44.69469" lon="5.20102">
        <ele>274</ele>
        <time>2022-11-17T10:16:54Z</time>
      </trkpt>
      <trkpt lat="44.69485" lon="5.20101">
        <ele>275</ele>
        <time>2022-11-17T10:16:54Z</time>
      </trkpt>
      <trkpt lat="44.69496" lon="5.20092">
        <ele>275</ele>
        <time>2022-11-17T10:16:54Z</time>
      </trkpt>
      <trkpt lat="44.69509" lon="5.20065">
        <ele>275</ele>
        <time>2022-11-17T10:16:54Z</time>
      </trkpt>
      <trkpt lat="44.69511" lon="5.20049">
        <ele>276</ele>
        <time>2022-11-17T10:16:54Z</time>
      </trkpt>
      <trkpt lat="44.69509" lon="5.20035">
        <ele>276</ele>
        <time>2022-11-17T10:16:54Z</time>
      </trkpt>
      <trkpt lat="44.695" lon="5.20007">
        <ele>276</ele>
        <time>2022-11-17T10:16:54Z</time>
      </trkpt>
      <trkpt lat="44.6949" lon="5.19994">
        <ele>276</ele>
        <time>2022-11-17T10:16:54Z</time>
      </trkpt>
      <trkpt lat="44.69477" lon="5.19969">
        <ele>277</ele>
        <time>2022-11-17T10:16:54Z</time>
      </trkpt>
      <trkpt lat="44.69475" lon="5.19957">
        <ele>277</ele>
        <time>2022-11-17T10:16:54Z</time>
      </trkpt>
      <trkpt lat="44.69473" lon="5.19924">
        <ele>277</ele>
        <time>2022-11-17T10:16:54Z</time>
      </trkpt>
      <trkpt lat="44.69467" lon="5.1991">
        <ele>278</ele>
        <time>2022-11-17T10:16:54Z</time>
      </trkpt>
      <trkpt lat="44.69425" lon="5.19877">
        <ele>279</ele>
        <time>2022-11-17T10:16:54Z</time>
      </trkpt>
      <trkpt lat="44.69343" lon="5.19851">
        <ele>282</ele>
        <time>2022-11-17T10:16:54Z</time>
      </trkpt>
      <trkpt lat="44.69244" lon="5.19842">
        <ele>286</ele>
      </trkpt>
      <trkpt lat="44.69144" lon="5.19833">
        <ele>290</ele>
        <time>2022-11-17T10:16:54Z</time>
      </trkpt>
      <trkpt lat="44.69134" lon="5.19828">
        <ele>292</ele>
        <time>2022-11-17T10:16:54Z</time>
      </trkpt>
      <trkpt lat="44.6903" lon="5.19826">
        <ele>296</ele>
        <time>2022-11-17T10:16:54Z</time>
      </trkpt>
      <trkpt lat="44.69019" lon="5.19821">
        <ele>298</ele>
        <time>2022-11-17T10:16:54Z</time>
      </trkpt>
      <trkpt lat="44.69003" lon="5.19808">
        <ele>300</ele>
        <time>2022-11-17T10:16:54Z</time>
      </trkpt>
      <trkpt lat="44.68957" lon="5.19813">
        <ele>301</ele>
        <time>2022-11-17T10:16:54Z</time>
      </trkpt>
      <trkpt lat="44.68905" lon="5.19797">
        <ele>304</ele>
      </trkpt>
      <trkpt lat="44.68853" lon="5.19781">
        <ele>306</ele>
      </trkpt>
      <trkpt lat="44.68801" lon="5.19764">
        <ele>309</ele>
      </trkpt>
      <trkpt lat="44.68749" lon="5.19748">
        <ele>311</ele>
      </trkpt>
      <trkpt lat="44.68696" lon="5.19732">
        <ele>313</ele>
      </trkpt>
      <trkpt lat="44.68644" lon="5.19716">
        <ele>315</ele>
      </trkpt>
      <trkpt lat="44.68592" lon="5.197">
        <ele>317</ele>
      </trkpt>
      <trkpt lat="44.6854" lon="5.19683">
        <ele>319</ele>
      </trkpt>
      <trkpt lat="44.68488" lon="5.19667">
        <ele>321</ele>
      </trkpt>
      <trkpt lat="44.68436" lon="5.19651">
        <ele>323</ele>
      </trkpt>
      <trkpt lat="44.68384" lon="5.19635">
        <ele>325</ele>
      </trkpt>
      <trkpt lat="44.68332" lon="5.19619">
        <ele>326</ele>
      </trkpt>
      <trkpt lat="44.68279" lon="5.19603">
        <ele>328</ele>
      </trkpt>
      <trkpt lat="44.68227" lon="5.19586">
        <ele>332</ele>
      </trkpt>
      <trkpt lat="44.68175" lon="5.1957">
        <ele>334</ele>
      </trkpt>
      <trkpt lat="44.68123" lon="5.19554">
        <ele>334</ele>
        <time>2022-11-17T10:16:54Z</time>
      </trkpt>
      <trkpt lat="44.68034" lon="5.19496">
        <ele>336</ele>
      </trkpt>
      <trkpt lat="44.67945" lon="5.19439">
        <ele>338</ele>
        <time>2022-11-17T10:16:54Z</time>
      </trkpt>
      <trkpt lat="44.67926" lon="5.19437">
        <ele>339</ele>
        <time>2022-11-17T10:16:54Z</time>
      </trkpt>
      <trkpt lat="44.67862" lon="5.19458">
        <ele>340</ele>
      </trkpt>
      <trkpt lat="44.67798" lon="5.19479">
        <ele>341</ele>
      </trkpt>
      <trkpt lat="44.67734" lon="5.19499">
        <ele>342</ele>
      </trkpt>
      <trkpt lat="44.6767" lon="5.1952">
        <ele>344</ele>
        <time>2022-11-17T10:16:54Z</time>
      </trkpt>
      <trkpt lat="44.67582" lon="5.1952">
        <ele>351</ele>
        <time>2022-11-17T10:16:54Z</time>
      </trkpt>
      <trkpt lat="44.6757" lon="5.19527">
        <ele>355</ele>
        <time>2022-11-17T10:16:54Z</time>
      </trkpt>
      <trkpt lat="44.67563" lon="5.19534">
        <ele>357</ele>
        <time>2022-11-17T10:16:54Z</time>
      </trkpt>
      <trkpt lat="44.67556" lon="5.19547">
        <ele>359</ele>
        <time>2022-11-17T10:16:54Z</time>
      </trkpt>
      <trkpt lat="44.67548" lon="5.19581">
        <ele>359</ele>
        <time>2022-11-17T10:16:54Z</time>
      </trkpt>
      <trkpt lat="44.6754" lon="5.19591">
        <ele>359</ele>
        <time>2022-11-17T10:16:54Z</time>
      </trkpt>
      <trkpt lat="44.67492" lon="5.19629">
        <ele>360</ele>
        <time>2022-11-17T10:16:54Z</time>
      </trkpt>
      <trkpt lat="44.67453" lon="5.19634">
        <ele>361</ele>
        <time>2022-11-17T10:16:54Z</time>
      </trkpt>
      <trkpt lat="44.67438" lon="5.19628">
        <ele>362</ele>
        <time>2022-11-17T10:16:54Z</time>
      </trkpt>
      <trkpt lat="44.67424" lon="5.19628">
        <ele>363</ele>
        <time>2022-11-17T10:16:54Z</time>
      </trkpt>
      <trkpt lat="44.67407" lon="5.1964">
        <ele>363</ele>
        <time>2022-11-17T10:16:54Z</time>
      </trkpt>
      <trkpt lat="44.67391" lon="5.19661">
        <ele>364</ele>
        <time>2022-11-17T10:16:54Z</time>
      </trkpt>
      <trkpt lat="44.67386" lon="5.19674">
        <ele>365</ele>
        <time>2022-11-17T10:16:54Z</time>
      </trkpt>
      <trkpt lat="44.6738" lon="5.19712">
        <ele>366</ele>
        <time>2022-11-17T10:16:54Z</time>
      </trkpt>
      <trkpt lat="44.6736" lon="5.19747">
        <ele>368</ele>
        <time>2022-11-17T10:16:54Z</time>
      </trkpt>
      <trkpt lat="44.67349" lon="5.19818">
        <ele>369</ele>
        <time>2022-11-17T10:16:54Z</time>
      </trkpt>
      <trkpt lat="44.67343" lon="5.19827">
        <ele>373</ele>
        <time>2022-11-17T10:16:54Z</time>
      </trkpt>
      <trkpt lat="44.6722" lon="5.19917">
        <ele>377</ele>
        <time>2022-11-17T10:16:54Z</time>
      </trkpt>
      <trkpt lat="44.672" lon="5.19945">
        <ele>379</ele>
        <time>2022-11-17T10:16:54Z</time>
      </trkpt>
      <trkpt lat="44.67143" lon="5.19974">
        <ele>382</ele>
        <time>2022-11-17T10:16:54Z</time>
      </trkpt>
      <trkpt lat="44.67103" lon="5.20019">
        <ele>385</ele>
        <time>2022-11-17T10:16:54Z</time>
      </trkpt>
      <trkpt lat="44.6708" lon="5.20061">
        <ele>388</ele>
        <time>2022-11-17T10:16:54Z</time>
      </trkpt>
      <trkpt lat="44.6707" lon="5.20093">
        <ele>390</ele>
        <time>2022-11-17T10:16:54Z</time>
      </trkpt>
      <trkpt lat="44.67063" lon="5.20105">
        <ele>391</ele>
        <time>2022-11-17T10:16:54Z</time>
      </trkpt>
      <trkpt lat="44.67056" lon="5.20109">
        <ele>392</ele>
        <time>2022-11-17T10:16:54Z</time>
      </trkpt>
      <trkpt lat="44.6703" lon="5.20117">
        <ele>394</ele>
        <time>2022-11-17T10:16:54Z</time>
      </trkpt>
      <trkpt lat="44.6702" lon="5.20127">
        <ele>395</ele>
        <time>2022-11-17T10:16:54Z</time>
      </trkpt>
      <trkpt lat="44.6701" lon="5.20128">
        <ele>396</ele>
        <time>2022-11-17T10:16:54Z</time>
      </trkpt>
      <trkpt lat="44.67003" lon="5.20133">
        <ele>398</ele>
        <time>2022-11-17T10:16:54Z</time>
      </trkpt>
      <trkpt lat="44.66993" lon="5.20144">
        <ele>398</ele>
        <time>2022-11-17T10:16:54Z</time>
      </trkpt>
      <trkpt lat="44.66965" lon="5.20214">
        <ele>398</ele>
        <time>2022-11-17T10:16:54Z</time>
      </trkpt>
      <trkpt lat="44.66883" lon="5.20316">
        <ele>400</ele>
      </trkpt>
      <trkpt lat="44.668" lon="5.20418">
        <ele>405</ele>
        <time>2022-11-17T10:16:54Z</time>
      </trkpt>
      <trkpt lat="44.66715" lon="5.20474">
        <ele>411</ele>
      </trkpt>
      <trkpt lat="44.66629" lon="5.2053">
        <ele>416</ele>
        <time>2022-11-17T10:16:54Z</time>
      </trkpt>
      <trkpt lat="44.66619" lon="5.20549">
        <ele>419</ele>
        <time>2022-11-17T10:16:54Z</time>
      </trkpt>
      <trkpt lat="44.66598" lon="5.20614">
        <ele>421</ele>
        <time>2022-11-17T10:16:54Z</time>
      </trkpt>
      <trkpt lat="44.66591" lon="5.20628">
        <ele>423</ele>
        <time>2022-11-17T10:16:54Z</time>
      </trkpt>
      <trkpt lat="44.66577" lon="5.20682">
        <ele>425</ele>
        <time>2022-11-17T10:16:54Z</time>
      </trkpt>
      <trkpt lat="44.66564" lon="5.20776">
        <ele>430</ele>
        <time>2022-11-17T10:16:54Z</time>
      </trkpt>
      <trkpt lat="44.66523" lon="5.209">
        <ele>436</ele>
      </trkpt>
      <trkpt lat="44.66482" lon="5.21024">
        <ele>442</ele>
        <time>2022-11-17T10:16:54Z</time>
      </trkpt>
      <trkpt lat="44.66409" lon="5.21163">
        <ele>449</ele>
        <time>2022-11-17T10:16:54Z</time>
      </trkpt>
      <trkpt lat="44.66402" lon="5.2117">
        <ele>452</ele>
        <time>2022-11-17T10:16:54Z</time>
      </trkpt>
      <trkpt lat="44.66394" lon="5.21175">
        <ele>454</ele>
        <time>2022-11-17T10:16:54Z</time>
      </trkpt>
      <trkpt lat="44.6635" lon="5.2122">
        <ele>457</ele>
        <time>2022-11-17T10:16:54Z</time>
      </trkpt>
      <trkpt lat="44.6634" lon="5.21176">
        <ele>461</ele>
        <time>2022-11-17T10:16:54Z</time>
      </trkpt>
      <trkpt lat="44.66331" lon="5.21164">
        <ele>464</ele>
        <time>2022-11-17T10:16:54Z</time>
      </trkpt>
      <trkpt lat="44.66322" lon="5.21163">
        <ele>467</ele>
        <time>2022-11-17T10:16:54Z</time>
      </trkpt>
      <trkpt lat="44.66312" lon="5.21176">
        <ele>469</ele>
        <time>2022-11-17T10:16:54Z</time>
      </trkpt>
      <trkpt lat="44.66303" lon="5.21193">
        <ele>472</ele>
        <time>2022-11-17T10:16:54Z</time>
      </trkpt>
      <trkpt lat="44.6625" lon="5.2124">
        <ele>476</ele>
        <time>2022-11-17T10:16:54Z</time>
      </trkpt>
      <trkpt lat="44.66205" lon="5.21324">
        <ele>479</ele>
        <time>2022-11-17T10:16:54Z</time>
      </trkpt>
      <trkpt lat="44.66193" lon="5.21376">
        <ele>482</ele>
        <time>2022-11-17T10:16:54Z</time>
      </trkpt>
      <trkpt lat="44.66185" lon="5.21519">
        <ele>483</ele>
        <time>2022-11-17T10:16:54Z</time>
      </trkpt>
      <trkpt lat="44.6618" lon="5.21536">
        <ele>484</ele>
        <time>2022-11-17T10:16:54Z</time>
      </trkpt>
      <trkpt lat="44.66172" lon="5.21547">
        <ele>485</ele>
        <time>2022-11-17T10:16:54Z</time>
      </trkpt>
      <trkpt lat="44.66165" lon="5.21553">
        <ele>485</ele>
        <time>2022-11-17T10:16:54Z</time>
      </trkpt>
      <trkpt lat="44.66157" lon="5.21562">
        <ele>486</ele>
        <time>2022-11-17T10:16:54Z</time>
      </trkpt>
      <trkpt lat="44.66155" lon="5.21575">
        <ele>486</ele>
        <time>2022-11-17T10:16:54Z</time>
      </trkpt>
      <trkpt lat="44.66158" lon="5.21586">
        <ele>487</ele>
        <time>2022-11-17T10:16:54Z</time>
      </trkpt>
      <trkpt lat="44.66168" lon="5.21601">
        <ele>486</ele>
        <time>2022-11-17T10:16:54Z</time>
      </trkpt>
      <trkpt lat="44.66161" lon="5.21719">
        <ele>486</ele>
        <time>2022-11-17T10:16:54Z</time>
      </trkpt>
      <trkpt lat="44.66145" lon="5.21823">
        <ele>486</ele>
      </trkpt>
      <trkpt lat="44.66129" lon="5.21927">
        <ele>488</ele>
        <time>2022-11-17T10:16:54Z</time>
      </trkpt>
      <trkpt lat="44.66122" lon="5.21944">
        <ele>489</ele>
        <time>2022-11-17T10:16:54Z</time>
      </trkpt>
      <trkpt lat="44.6606" lon="5.22008">
        <ele>490</ele>
        <time>2022-11-17T10:16:54Z</time>
      </trkpt>
      <trkpt lat="44.65976" lon="5.22166">
        <ele>494</ele>
        <time>2022-11-17T10:16:54Z</time>
      </trkpt>
      <trkpt lat="44.65938" lon="5.22212">
        <ele>497</ele>
        <time>2022-11-17T10:16:54Z</time>
      </trkpt>
      <trkpt lat="44.6593" lon="5.22227">
        <ele>499</ele>
        <time>2022-11-17T10:16:54Z</time>
      </trkpt>
      <trkpt lat="44.65913" lon="5.22277">
        <ele>508</ele>
        <time>2022-11-17T10:16:54Z</time>
      </trkpt>
      <trkpt lat="44.65867" lon="5.22321">
        <ele>508</ele>
        <time>2022-11-17T10:16:54Z</time>
      </trkpt>
      <trkpt lat="44.65723" lon="5.22398">
        <ele>511</ele>
        <time>2022-11-17T10:16:54Z</time>
      </trkpt>
      <trkpt lat="44.65717" lon="5.22406">
        <ele>512</ele>
        <time>2022-11-17T10:16:54Z</time>
      </trkpt>
      <trkpt lat="44.65713" lon="5.22418">
        <ele>513</ele>
        <time>2022-11-17T10:16:54Z</time>
      </trkpt>
      <trkpt lat="44.65654" lon="5.22474">
        <ele>515</ele>
        <time>2022-11-17T10:16:54Z</time>
      </trkpt>
      <trkpt lat="44.6563" lon="5.22485">
        <ele>518</ele>
        <time>2022-11-17T10:16:54Z</time>
      </trkpt>
      <trkpt lat="44.65591" lon="5.22481">
        <ele>520</ele>
        <time>2022-11-17T10:16:54Z</time>
      </trkpt>
      <trkpt lat="44.65567" lon="5.22465">
        <ele>524</ele>
        <time>2022-11-17T10:16:54Z</time>
      </trkpt>
      <trkpt lat="44.65574" lon="5.22479">
        <ele>526</ele>
        <time>2022-11-17T10:16:54Z</time>
      </trkpt>
      <trkpt lat="44.6558" lon="5.22487">
        <ele>527</ele>
        <time>2022-11-17T10:16:54Z</time>
      </trkpt>
      <trkpt lat="44.65582" lon="5.22498">
        <ele>529</ele>
        <time>2022-11-17T10:16:54Z</time>
      </trkpt>
      <trkpt lat="44.65563" lon="5.22568">
        <ele>532</ele>
        <time>2022-11-17T10:16:54Z</time>
      </trkpt>
      <trkpt lat="44.65523" lon="5.22649">
        <ele>536</ele>
        <time>2022-11-17T10:16:54Z</time>
      </trkpt>
      <trkpt lat="44.65516" lon="5.22649">
        <ele>539</ele>
        <time>2022-11-17T10:16:54Z</time>
      </trkpt>
      <trkpt lat="44.65515" lon="5.22633">
        <ele>541</ele>
        <time>2022-11-17T10:16:54Z</time>
      </trkpt>
      <trkpt lat="44.65524" lon="5.22567">
        <ele>545</ele>
        <time>2022-11-17T10:16:54Z</time>
      </trkpt>
      <trkpt lat="44.65515" lon="5.22527">
        <ele>548</ele>
        <time>2022-11-17T10:16:54Z</time>
      </trkpt>
      <trkpt lat="44.65509" lon="5.22521">
        <ele>551</ele>
        <time>2022-11-17T10:16:54Z</time>
      </trkpt>
      <trkpt lat="44.65428" lon="5.22556">
        <ele>556</ele>
        <time>2022-11-17T10:16:54Z</time>
      </trkpt>
      <trkpt lat="44.65414" lon="5.22595">
        <ele>561</ele>
        <time>2022-11-17T10:16:54Z</time>
      </trkpt>
      <trkpt lat="44.65405" lon="5.22596">
        <ele>565</ele>
        <time>2022-11-17T10:16:54Z</time>
      </trkpt>
      <trkpt lat="44.65395" lon="5.22547">
        <ele>568</ele>
        <time>2022-11-17T10:16:54Z</time>
      </trkpt>
      <trkpt lat="44.65395" lon="5.22508">
        <ele>570</ele>
        <time>2022-11-17T10:16:54Z</time>
      </trkpt>
      <trkpt lat="44.65391" lon="5.22495">
        <ele>570</ele>
        <time>2022-11-17T10:16:54Z</time>
      </trkpt>
      <trkpt lat="44.65377" lon="5.2249">
        <ele>571</ele>
        <time>2022-11-17T10:16:54Z</time>
      </trkpt>
      <trkpt lat="44.65365" lon="5.2249">
        <ele>572</ele>
        <time>2022-11-17T10:16:54Z</time>
      </trkpt>
      <trkpt lat="44.65305" lon="5.22548">
        <ele>577</ele>
        <time>2022-11-17T10:16:54Z</time>
      </trkpt>
      <trkpt lat="44.65295" lon="5.22546">
        <ele>581</ele>
        <time>2022-11-17T10:16:54Z</time>
      </trkpt>
      <trkpt lat="44.65289" lon="5.22535">
        <ele>584</ele>
        <time>2022-11-17T10:16:54Z</time>
      </trkpt>
      <trkpt lat="44.65286" lon="5.22518">
        <ele>586</ele>
        <time>2022-11-17T10:16:54Z</time>
      </trkpt>
      <trkpt lat="44.65281" lon="5.22507">
        <ele>587</ele>
        <time>2022-11-17T10:16:54Z</time>
      </trkpt>
      <trkpt lat="44.65212" lon="5.22505">
        <ele>590</ele>
        <time>2022-11-17T10:16:54Z</time>
      </trkpt>
      <trkpt lat="44.65199" lon="5.22511">
        <ele>592</ele>
        <time>2022-11-17T10:16:54Z</time>
      </trkpt>
      <trkpt lat="44.65145" lon="5.22609">
        <ele>598</ele>
        <time>2022-11-17T10:16:54Z</time>
      </trkpt>
      <trkpt lat="44.65121" lon="5.22623">
        <ele>603</ele>
        <time>2022-11-17T10:16:54Z</time>
      </trkpt>
      <trkpt lat="44.65113" lon="5.22624">
        <ele>607</ele>
        <time>2022-11-17T10:16:54Z</time>
      </trkpt>
      <trkpt lat="44.65105" lon="5.22619">
        <ele>611</ele>
        <time>2022-11-17T10:16:54Z</time>
      </trkpt>
      <trkpt lat="44.65102" lon="5.22561">
        <ele>612</ele>
        <time>2022-11-17T10:16:54Z</time>
      </trkpt>
      <trkpt lat="44.65095" lon="5.22551">
        <ele>614</ele>
        <time>2022-11-17T10:16:54Z</time>
      </trkpt>
      <trkpt lat="44.65084" lon="5.22546">
        <ele>616</ele>
        <time>2022-11-17T10:16:54Z</time>
      </trkpt>
      <trkpt lat="44.65055" lon="5.22542">
        <ele>620</ele>
        <time>2022-11-17T10:16:54Z</time>
      </trkpt>
      <trkpt lat="44.65049" lon="5.22536">
        <ele>624</ele>
        <time>2022-11-17T10:16:54Z</time>
      </trkpt>
      <trkpt lat="44.65039" lon="5.22507">
        <ele>626</ele>
        <time>2022-11-17T10:16:54Z</time>
      </trkpt>
      <trkpt lat="44.65033" lon="5.225">
        <ele>628</ele>
        <time>2022-11-17T10:16:54Z</time>
      </trkpt>
      <trkpt lat="44.65003" lon="5.22473">
        <ele>632</ele>
        <time>2022-11-17T10:16:54Z</time>
      </trkpt>
      <trkpt lat="44.64975" lon="5.22435">
        <ele>635</ele>
        <time>2022-11-17T10:16:54Z</time>
      </trkpt>
      <trkpt lat="44.64965" lon="5.22427">
        <ele>637</ele>
        <time>2022-11-17T10:16:54Z</time>
      </trkpt>
      <trkpt lat="44.64955" lon="5.22424">
        <ele>639</ele>
        <time>2022-11-17T10:16:54Z</time>
      </trkpt>
      <trkpt lat="44.64952" lon="5.22434">
        <ele>641</ele>
        <time>2022-11-17T10:16:54Z</time>
      </trkpt>
      <trkpt lat="44.64952" lon="5.22445">
        <ele>657</ele>
        <time>2022-11-17T10:16:54Z</time>
      </trkpt>
      <trkpt lat="44.64975" lon="5.22469">
        <ele>657</ele>
        <time>2022-11-17T10:16:54Z</time>
      </trkpt>
      <trkpt lat="44.65017" lon="5.22617">
        <ele>662</ele>
        <time>2022-11-17T10:16:54Z</time>
      </trkpt>
      <trkpt lat="44.65019" lon="5.22639">
        <ele>666</ele>
        <time>2022-11-17T10:16:54Z</time>
      </trkpt>
      <trkpt lat="44.65013" lon="5.22741">
        <ele>673</ele>
        <time>2022-11-17T10:16:54Z</time>
      </trkpt>
      <trkpt lat="44.65034" lon="5.22776">
        <ele>677</ele>
        <time>2022-11-17T10:16:54Z</time>
      </trkpt>
      <trkpt lat="44.65057" lon="5.22906">
        <ele>686</ele>
        <time>2022-11-17T10:16:54Z</time>
      </trkpt>
      <trkpt lat="44.65041" lon="5.22971">
        <ele>693</ele>
        <time>2022-11-17T10:16:54Z</time>
      </trkpt>
      <trkpt lat="44.65034" lon="5.22983">
        <ele>697</ele>
        <time>2022-11-17T10:16:54Z</time>
      </trkpt>
      <trkpt lat="44.65024" lon="5.22995">
        <ele>701</ele>
        <time>2022-11-17T10:16:54Z</time>
      </trkpt>
      <trkpt lat="44.64989" lon="5.23006">
        <ele>705</ele>
        <time>2022-11-17T10:16:54Z</time>
      </trkpt>
      <trkpt lat="44.6498" lon="5.23013">
        <ele>709</ele>
        <time>2022-11-17T10:16:54Z</time>
      </trkpt>
      <trkpt lat="44.64954" lon="5.23076">
        <ele>713</ele>
        <time>2022-11-17T10:16:54Z</time>
      </trkpt>
      <trkpt lat="44.64921" lon="5.23114">
        <ele>716</ele>
        <time>2022-11-17T10:16:54Z</time>
      </trkpt>
      <trkpt lat="44.64823" lon="5.23202">
        <ele>724</ele>
        <time>2022-11-17T10:16:54Z</time>
      </trkpt>
      <trkpt lat="44.64807" lon="5.23234">
        <ele>729</ele>
        <time>2022-11-17T10:16:54Z</time>
      </trkpt>
      <trkpt lat="44.64796" lon="5.23273">
        <ele>733</ele>
        <time>2022-11-17T10:16:54Z</time>
      </trkpt>
      <trkpt lat="44.64789" lon="5.23281">
        <ele>735</ele>
        <time>2022-11-17T10:16:54Z</time>
      </trkpt>
      <trkpt lat="44.64754" lon="5.23356">
        <ele>741</ele>
      </trkpt>
      <trkpt lat="44.64718" lon="5.2343">
        <ele>749</ele>
        <time>2022-11-17T10:16:54Z</time>
      </trkpt>
      <trkpt lat="44.64701" lon="5.23445">
        <ele>754</ele>
        <time>2022-11-17T10:16:54Z</time>
      </trkpt>
      <trkpt lat="44.64695" lon="5.23455">
        <ele>757</ele>
        <time>2022-11-17T10:16:54Z</time>
      </trkpt>
      <trkpt lat="44.64621" lon="5.23521">
        <ele>757</ele>
      </trkpt>
      <trkpt lat="44.64546" lon="5.23587">
        <ele>756</ele>
        <time>2022-11-17T10:16:54Z</time>
      </trkpt>
      <trkpt lat="44.64529" lon="5.23478">
        <ele>755</ele>
        <time>2022-11-17T10:16:54Z</time>
      </trkpt>
      <trkpt lat="44.64533" lon="5.23409">
        <ele>755</ele>
        <time>2022-11-17T10:16:54Z</time>
      </trkpt>
      <trkpt lat="44.64552" lon="5.23306">
        <ele>754</ele>
        <time>2022-11-17T10:16:54Z</time>
      </trkpt>
      <trkpt lat="44.64505" lon="5.23261">
        <ele>755</ele>
        <time>2022-11-17T10:16:54Z</time>
      </trkpt>
      <trkpt lat="44.64406" lon="5.23225">
        <ele>760</ele>
        <time>2022-11-17T10:16:54Z</time>
      </trkpt>
      <trkpt lat="44.64412" lon="5.23192">
        <ele>762</ele>
        <time>2022-11-17T10:16:54Z</time>
      </trkpt>
      <trkpt lat="44.64486" lon="5.23139">
        <ele>761</ele>
        <time>2022-11-17T10:16:54Z</time>
      </trkpt>
      <trkpt lat="44.6451" lon="5.2309">
        <ele>762</ele>
        <time>2022-11-17T10:16:54Z</time>
      </trkpt>
      <trkpt lat="44.64505" lon="5.23031">
        <ele>764</ele>
        <time>2022-11-17T10:16:54Z</time>
      </trkpt>
      <trkpt lat="44.64425" lon="5.22945">
        <ele>769</ele>
        <time>2022-11-17T10:16:54Z</time>
      </trkpt>
      <trkpt lat="44.64401" lon="5.22892">
        <ele>770</ele>
        <time>2022-11-17T10:16:54Z</time>
      </trkpt>
      <trkpt lat="44.64347" lon="5.22828">
        <ele>769</ele>
        <time>2022-11-17T10:16:54Z</time>
      </trkpt>
      <trkpt lat="44.64276" lon="5.22806">
        <ele>773</ele>
        <time>2022-11-17T10:16:54Z</time>
      </trkpt>
      <trkpt lat="44.64269" lon="5.22799">
        <ele>775</ele>
        <time>2022-11-17T10:16:54Z</time>
      </trkpt>
      <trkpt lat="44.64228" lon="5.22719">
        <ele>776</ele>
        <time>2022-11-17T10:16:54Z</time>
      </trkpt>
      <trkpt lat="44.64223" lon="5.227">
        <ele>775</ele>
        <time>2022-11-17T10:16:54Z</time>
      </trkpt>
      <trkpt lat="44.64206" lon="5.22677">
        <ele>775</ele>
        <time>2022-11-17T10:16:54Z</time>
      </trkpt>
      <trkpt lat="44.64168" lon="5.22663">
        <ele>776</ele>
        <time>2022-11-17T10:16:54Z</time>
      </trkpt>
      <trkpt lat="44.6416" lon="5.22644">
        <ele>778</ele>
        <time>2022-11-17T10:16:54Z</time>
      </trkpt>
      <trkpt lat="44.64159" lon="5.22618">
        <ele>780</ele>
        <time>2022-11-17T10:16:54Z</time>
      </trkpt>
      <trkpt lat="44.64162" lon="5.22602">
        <ele>781</ele>
        <time>2022-11-17T10:16:54Z</time>
      </trkpt>
      <trkpt lat="44.64183" lon="5.22552">
        <ele>783</ele>
        <time>2022-11-17T10:16:54Z</time>
      </trkpt>
      <trkpt lat="44.64194" lon="5.22541">
        <ele>785</ele>
        <time>2022-11-17T10:16:54Z</time>
      </trkpt>
      <trkpt lat="44.64215" lon="5.22527">
        <ele>785</ele>
        <time>2022-11-17T10:16:54Z</time>
      </trkpt>
      <trkpt lat="44.64219" lon="5.22513">
        <ele>786</ele>
        <time>2022-11-17T10:16:54Z</time>
      </trkpt>
      <trkpt lat="44.64191" lon="5.22463">
        <ele>788</ele>
        <time>2022-11-17T10:16:54Z</time>
      </trkpt>
      <trkpt lat="44.64158" lon="5.22365">
        <ele>791</ele>
        <time>2022-11-17T10:16:54Z</time>
      </trkpt>
      <trkpt lat="44.64151" lon="5.22358">
        <ele>794</ele>
        <time>2022-11-17T10:16:54Z</time>
      </trkpt>
      <trkpt lat="44.64091" lon="5.22311">
        <ele>822</ele>
        <time>2022-11-17T10:16:54Z</time>
      </trkpt>
      <trkpt lat="44.64088" lon="5.22298">
        <ele>822</ele>
        <time>2022-11-17T10:16:54Z</time>
      </trkpt>
      <trkpt lat="44.64089" lon="5.22284">
        <ele>822</ele>
        <time>2022-11-17T10:16:54Z</time>
      </trkpt>
      <trkpt lat="44.64085" lon="5.22272">
        <ele>821</ele>
        <time>2022-11-17T10:16:54Z</time>
      </trkpt>
      <trkpt lat="44.6407" lon="5.22272">
        <ele>822</ele>
        <time>2022-11-17T10:16:54Z</time>
      </trkpt>
      <trkpt lat="44.64061" lon="5.22264">
        <ele>823</ele>
        <time>2022-11-17T10:16:54Z</time>
      </trkpt>
      <trkpt lat="44.64059" lon="5.22253">
        <ele>824</ele>
        <time>2022-11-17T10:16:54Z</time>
      </trkpt>
      <trkpt lat="44.64056" lon="5.22205">
        <ele>823</ele>
        <time>2022-11-17T10:16:54Z</time>
      </trkpt>
      <trkpt lat="44.64052" lon="5.22196">
        <ele>823</ele>
        <time>2022-11-17T10:16:54Z</time>
      </trkpt>
      <trkpt lat="44.64041" lon="5.22178">
        <ele>822</ele>
        <time>2022-11-17T10:16:54Z</time>
      </trkpt>
      <trkpt lat="44.64002" lon="5.22155">
        <ele>822</ele>
        <time>2022-11-17T10:16:54Z</time>
      </trkpt>
      <trkpt lat="44.6397" lon="5.22168">
        <ele>823</ele>
        <time>2022-11-17T10:16:54Z</time>
      </trkpt>
      <trkpt lat="44.63959" lon="5.22168">
        <ele>824</ele>
        <time>2022-11-17T10:16:54Z</time>
      </trkpt>
      <trkpt lat="44.63915" lon="5.22145">
        <ele>826</ele>
        <time>2022-11-17T10:16:54Z</time>
      </trkpt>
      <trkpt lat="44.6391" lon="5.22134">
        <ele>828</ele>
        <time>2022-11-17T10:16:54Z</time>
      </trkpt>
      <trkpt lat="44.63916" lon="5.22079">
        <ele>830</ele>
        <time>2022-11-17T10:16:54Z</time>
      </trkpt>
      <trkpt lat="44.63904" lon="5.21972">
        <ele>832</ele>
        <time>2022-11-17T10:16:54Z</time>
      </trkpt>
      <trkpt lat="44.63898" lon="5.21959">
        <ele>834</ele>
        <time>2022-11-17T10:16:54Z</time>
      </trkpt>
      <trkpt lat="44.63885" lon="5.21947">
        <ele>836</ele>
        <time>2022-11-17T10:16:54Z</time>
      </trkpt>
      <trkpt lat="44.63878" lon="5.21927">
        <ele>838</ele>
        <time>2022-11-17T10:16:54Z</time>
      </trkpt>
      <trkpt lat="44.63878" lon="5.21915">
        <ele>839</ele>
        <time>2022-11-17T10:16:54Z</time>
      </trkpt>
      <trkpt lat="44.63875" lon="5.21905">
        <ele>839</ele>
        <time>2022-11-17T10:16:54Z</time>
      </trkpt>
      <trkpt lat="44.63868" lon="5.2189">
        <ele>840</ele>
        <time>2022-11-17T10:16:54Z</time>
      </trkpt>
      <trkpt lat="44.63665" lon="5.21678">
        <ele>845</ele>
        <time>2022-11-17T10:16:54Z</time>
      </trkpt>
      <trkpt lat="44.63593" lon="5.21638">
        <ele>850</ele>
        <time>2022-11-17T10:16:54Z</time>
      </trkpt>
      <trkpt lat="44.63349" lon="5.21559">
        <ele>862</ele>
        <time>2022-11-17T10:16:54Z</time>
      </trkpt>
      <trkpt lat="44.63332" lon="5.21547">
        <ele>867</ele>
        <time>2022-11-17T10:16:54Z</time>
      </trkpt>
      <trkpt lat="44.63323" lon="5.21531">
        <ele>870</ele>
        <time>2022-11-17T10:16:54Z</time>
      </trkpt>
      <trkpt lat="44.63319" lon="5.21515">
        <ele>872</ele>
        <time>2022-11-17T10:16:54Z</time>
      </trkpt>
      <trkpt lat="44.63213" lon="5.21596">
        <ele>876</ele>
        <time>2022-11-17T10:16:54Z</time>
      </trkpt>
      <trkpt lat="44.63217" lon="5.21615">
        <ele>879</ele>
        <time>2022-11-17T10:16:54Z</time>
      </trkpt>
      <trkpt lat="44.63231" lon="5.21641">
        <ele>881</ele>
        <time>2022-11-17T10:16:54Z</time>
      </trkpt>
      <trkpt lat="44.63236" lon="5.21661">
        <ele>884</ele>
        <time>2022-11-17T10:16:54Z</time>
      </trkpt>
      <trkpt lat="44.63235" lon="5.2168">
        <ele>886</ele>
        <time>2022-11-17T10:16:54Z</time>
      </trkpt>
      <trkpt lat="44.6323" lon="5.21691">
        <ele>888</ele>
        <time>2022-11-17T10:16:54Z</time>
      </trkpt>
      <trkpt lat="44.63228" lon="5.21705">
        <ele>889</ele>
        <time>2022-11-17T10:16:54Z</time>
      </trkpt>
      <trkpt lat="44.63239" lon="5.2177">
        <ele>893</ele>
        <time>2022-11-17T10:16:54Z</time>
      </trkpt>
      <trkpt lat="44.63222" lon="5.21811">
        <ele>896</ele>
        <time>2022-11-17T10:16:54Z</time>
      </trkpt>
      <trkpt lat="44.63215" lon="5.21819">
        <ele>898</ele>
        <time>2022-11-17T10:16:54Z</time>
      </trkpt>
      <trkpt lat="44.63211" lon="5.21832">
        <ele>900</ele>
        <time>2022-11-17T10:16:54Z</time>
      </trkpt>
      <trkpt lat="44.63218" lon="5.21841">
        <ele>902</ele>
        <time>2022-11-17T10:16:54Z</time>
      </trkpt>
      <trkpt lat="44.63235" lon="5.21828">
        <ele>904</ele>
        <time>2022-11-17T10:16:54Z</time>
      </trkpt>
      <trkpt lat="44.63259" lon="5.21823">
        <ele>905</ele>
        <time>2022-11-17T10:16:54Z</time>
      </trkpt>
      <trkpt lat="44.63316" lon="5.21841">
        <ele>909</ele>
        <time>2022-11-17T10:16:54Z</time>
      </trkpt>
      <trkpt lat="44.63328" lon="5.21841">
        <ele>911</ele>
        <time>2022-11-17T10:16:54Z</time>
      </trkpt>
      <trkpt lat="44.63339" lon="5.21845">
        <ele>913</ele>
        <time>2022-11-17T10:16:54Z</time>
      </trkpt>
      <trkpt lat="44.63347" lon="5.21852">
        <ele>914</ele>
        <time>2022-11-17T10:16:54Z</time>
      </trkpt>
      <trkpt lat="44.6335" lon="5.21913">
        <ele>918</ele>
        <time>2022-11-17T10:16:54Z</time>
      </trkpt>
      <trkpt lat="44.63374" lon="5.21947">
        <ele>923</ele>
        <time>2022-11-17T10:16:54Z</time>
      </trkpt>
      <trkpt lat="44.63464" lon="5.22026">
        <ele>928</ele>
        <time>2022-11-17T10:16:54Z</time>
      </trkpt>
      <trkpt lat="44.63581" lon="5.2216">
        <ele>953</ele>
        <time>2022-11-17T10:16:54Z</time>
      </trkpt>
      <trkpt lat="44.63596" lon="5.22205">
        <ele>955</ele>
        <time>2022-11-17T10:16:54Z</time>
      </trkpt>
      <trkpt lat="44.63606" lon="5.22217">
        <ele>955</ele>
        <time>2022-11-17T10:16:54Z</time>
      </trkpt>
      <trkpt lat="44.63639" lon="5.2223">
        <ele>955</ele>
        <time>2022-11-17T10:16:54Z</time>
      </trkpt>
      <trkpt lat="44.6367" lon="5.22279">
        <ele>954</ele>
        <time>2022-11-17T10:16:54Z</time>
      </trkpt>
      <trkpt lat="44.63679" lon="5.22321">
        <ele>953</ele>
        <time>2022-11-17T10:16:54Z</time>
      </trkpt>
      <trkpt lat="44.63679" lon="5.22331">
        <ele>953</ele>
        <time>2022-11-17T10:16:54Z</time>
      </trkpt>
      <trkpt lat="44.63684" lon="5.22348">
        <ele>953</ele>
        <time>2022-11-17T10:16:54Z</time>
      </trkpt>
      <trkpt lat="44.63708" lon="5.22377">
        <ele>953</ele>
        <time>2022-11-17T10:16:54Z</time>
      </trkpt>
      <trkpt lat="44.63729" lon="5.22381">
        <ele>953</ele>
        <time>2022-11-17T10:16:54Z</time>
      </trkpt>
      <trkpt lat="44.63789" lon="5.22424">
        <ele>952</ele>
        <time>2022-11-17T10:16:54Z</time>
      </trkpt>
      <trkpt lat="44.63795" lon="5.22433">
        <ele>951</ele>
        <time>2022-11-17T10:16:54Z</time>
      </trkpt>
      <trkpt lat="44.63797" lon="5.22468">
        <ele>952</ele>
        <time>2022-11-17T10:16:54Z</time>
      </trkpt>
      <trkpt lat="44.63803" lon="5.22482">
        <ele>953</ele>
        <time>2022-11-17T10:16:54Z</time>
      </trkpt>
      <trkpt lat="44.63838" lon="5.22523">
        <ele>953</ele>
        <time>2022-11-17T10:16:54Z</time>
      </trkpt>
      <trkpt lat="44.63889" lon="5.22546">
        <ele>953</ele>
        <time>2022-11-17T10:16:54Z</time>
      </trkpt>
      <trkpt lat="44.63898" lon="5.22554">
        <ele>952</ele>
        <time>2022-11-17T10:16:54Z</time>
      </trkpt>
      <trkpt lat="44.6391" lon="5.22573">
        <ele>951</ele>
        <time>2022-11-17T10:16:54Z</time>
      </trkpt>
      <trkpt lat="44.63906" lon="5.22596">
        <ele>951</ele>
        <time>2022-11-17T10:16:54Z</time>
      </trkpt>
      <trkpt lat="44.63893" lon="5.22629">
        <ele>953</ele>
        <time>2022-11-17T10:16:54Z</time>
      </trkpt>
      <trkpt lat="44.63891" lon="5.22654">
        <ele>954</ele>
        <time>2022-11-17T10:16:54Z</time>
      </trkpt>
      <trkpt lat="44.63898" lon="5.22739">
        <ele>955</ele>
        <time>2022-11-17T10:16:54Z</time>
      </trkpt>
      <trkpt lat="44.63876" lon="5.22914">
        <ele>958</ele>
        <time>2022-11-17T10:16:54Z</time>
      </trkpt>
      <trkpt lat="44.63878" lon="5.22932">
        <ele>960</ele>
        <time>2022-11-17T10:16:54Z</time>
      </trkpt>
      <trkpt lat="44.63887" lon="5.22951">
        <ele>961</ele>
        <time>2022-11-17T10:16:54Z</time>
      </trkpt>
      <trkpt lat="44.63927" lon="5.22994">
        <ele>960</ele>
        <time>2022-11-17T10:16:54Z</time>
      </trkpt>
      <trkpt lat="44.63944" lon="5.23028">
        <ele>961</ele>
        <time>2022-11-17T10:16:54Z</time>
      </trkpt>
      <trkpt lat="44.63968" lon="5.2305">
        <ele>963</ele>
        <time>2022-11-17T10:16:54Z</time>
      </trkpt>
      <trkpt lat="44.64049" lon="5.23074">
        <ele>962</ele>
        <time>2022-11-17T10:16:54Z</time>
      </trkpt>
      <trkpt lat="44.64057" lon="5.23083">
        <ele>961</ele>
        <time>2022-11-17T10:16:54Z</time>
      </trkpt>
      <trkpt lat="44.64057" lon="5.23095">
        <ele>960</ele>
        <time>2022-11-17T10:16:54Z</time>
      </trkpt>
      <trkpt lat="44.63961" lon="5.23256">
        <ele>962</ele>
        <time>2022-11-17T10:16:54Z</time>
      </trkpt>
      <trkpt lat="44.63953" lon="5.2329">
        <ele>964</ele>
        <time>2022-11-17T10:16:54Z</time>
      </trkpt>
      <trkpt lat="44.63964" lon="5.23351">
        <ele>966</ele>
        <time>2022-11-17T10:16:54Z</time>
      </trkpt>
      <trkpt lat="44.64015" lon="5.2345">
        <ele>969</ele>
        <time>2022-11-17T10:16:54Z</time>
      </trkpt>
      <trkpt lat="44.64017" lon="5.23465">
        <ele>971</ele>
        <time>2022-11-17T10:16:54Z</time>
      </trkpt>
      <trkpt lat="44.64017" lon="5.2348">
        <ele>972</ele>
        <time>2022-11-17T10:16:54Z</time>
      </trkpt>
      <trkpt lat="44.63876" lon="5.23592">
        <ele>981</ele>
        <time>2022-11-17T10:16:54Z</time>
      </trkpt>
      <trkpt lat="44.63871" lon="5.23605">
        <ele>986</ele>
        <time>2022-11-17T10:16:54Z</time>
      </trkpt>
      <trkpt lat="44.63887" lon="5.2374">
        <ele>992</ele>
        <time>2022-11-17T10:16:54Z</time>
      </trkpt>
      <trkpt lat="44.63912" lon="5.23814">
        <ele>995</ele>
        <time>2022-11-17T10:16:54Z</time>
      </trkpt>
      <trkpt lat="44.63903" lon="5.23826">
        <ele>998</ele>
        <time>2022-11-17T10:16:54Z</time>
      </trkpt>
      <trkpt lat="44.63832" lon="5.2388">
        <ele>1001</ele>
        <time>2022-11-17T10:16:54Z</time>
      </trkpt>
      <trkpt lat="44.63762" lon="5.24025">
        <ele>1000</ele>
        <time>2022-11-17T10:16:54Z</time>
      </trkpt>
      <trkpt lat="44.63742" lon="5.24047">
        <ele>999</ele>
        <time>2022-11-17T10:16:54Z</time>
      </trkpt>
      <trkpt lat="44.63734" lon="5.24051">
        <ele>998</ele>
        <time>2022-11-17T10:16:54Z</time>
      </trkpt>
      <trkpt lat="44.63725" lon="5.24052">
        <ele>998</ele>
        <time>2022-11-17T10:16:54Z</time>
      </trkpt>
      <trkpt lat="44.63714" lon="5.24049">
        <ele>999</ele>
        <time>2022-11-17T10:16:54Z</time>
      </trkpt>
      <trkpt lat="44.63701" lon="5.24055">
        <ele>999</ele>
        <time>2022-11-17T10:16:54Z</time>
      </trkpt>
      <trkpt lat="44.63693" lon="5.24066">
        <ele>999</ele>
        <time>2022-11-17T10:16:54Z</time>
      </trkpt>
      <trkpt lat="44.63688" lon="5.24093">
        <ele>997</ele>
        <time>2022-11-17T10:16:54Z</time>
      </trkpt>
      <trkpt lat="44.6367" lon="5.24126">
        <ele>997</ele>
        <time>2022-11-17T10:16:54Z</time>
      </trkpt>
      <trkpt lat="44.63663" lon="5.24164">
        <ele>997</ele>
        <time>2022-11-17T10:16:54Z</time>
      </trkpt>
      <trkpt lat="44.6363" lon="5.24137">
        <ele>997</ele>
        <time>2022-11-17T10:16:54Z</time>
      </trkpt>
      <trkpt lat="44.63589" lon="5.2412">
        <ele>997</ele>
        <time>2022-11-17T10:16:54Z</time>
      </trkpt>
      <trkpt lat="44.63487" lon="5.24094">
        <ele>992</ele>
        <time>2022-11-17T10:16:54Z</time>
      </trkpt>
      <trkpt lat="44.63418" lon="5.24104">
        <ele>986</ele>
        <time>2022-11-17T10:16:54Z</time>
      </trkpt>
      <trkpt lat="44.63343" lon="5.24066">
        <ele>977</ele>
      </trkpt>
      <trkpt lat="44.63267" lon="5.24028">
        <ele>963</ele>
        <time>2022-11-17T10:16:54Z</time>
      </trkpt>
      <trkpt lat="44.63222" lon="5.2408">
        <ele>957</ele>
        <time>2022-11-17T10:16:54Z</time>
      </trkpt>
      <trkpt lat="44.63158" lon="5.24107">
        <ele>951</ele>
      </trkpt>
      <trkpt lat="44.63095" lon="5.24134">
        <ele>946</ele>
      </trkpt>
      <trkpt lat="44.63031" lon="5.2416">
        <ele>940</ele>
      </trkpt>
      <trkpt lat="44.62967" lon="5.24187">
        <ele>929</ele>
        <time>2022-11-17T10:16:54Z</time>
      </trkpt>
      <trkpt lat="44.63002" lon="5.24246">
        <ele>921</ele>
      </trkpt>
      <trkpt lat="44.63037" lon="5.24305">
        <ele>915</ele>
        <time>2022-11-17T10:16:54Z</time>
      </trkpt>
      <trkpt lat="44.63098" lon="5.2438">
        <ele>911</ele>
        <time>2022-11-17T10:16:54Z</time>
      </trkpt>
      <trkpt lat="44.63115" lon="5.24445">
        <ele>906</ele>
        <time>2022-11-17T10:16:54Z</time>
      </trkpt>
      <trkpt lat="44.63077" lon="5.24528">
        <ele>906</ele>
        <time>2022-11-17T10:16:54Z</time>
      </trkpt>
      <trkpt lat="44.63002" lon="5.24625">
        <ele>906</ele>
        <time>2022-11-17T10:16:54Z</time>
      </trkpt>
      <trkpt lat="44.63086" lon="5.24689">
        <ele>909</ele>
      </trkpt>
      <trkpt lat="44.6317" lon="5.24754">
        <ele>912</ele>
        <time>2022-11-17T10:16:54Z</time>
      </trkpt>
      <trkpt lat="44.6322" lon="5.24822">
        <ele>915</ele>
        <time>2022-11-17T10:16:54Z</time>
      </trkpt>
      <trkpt lat="44.63214" lon="5.24865">
        <ele>915</ele>
        <time>2022-11-17T10:16:54Z</time>
      </trkpt>
      <trkpt lat="44.63255" lon="5.24899">
        <ele>916</ele>
        <time>2022-11-17T10:16:54Z</time>
      </trkpt>
      <trkpt lat="44.63235" lon="5.24928">
        <ele>915</ele>
        <time>2022-11-17T10:16:54Z</time>
      </trkpt>
      <trkpt lat="44.63226" lon="5.24951">
        <ele>914</ele>
        <time>2022-11-17T10:16:54Z</time>
      </trkpt>
      <trkpt lat="44.632" lon="5.24982">
        <ele>911</ele>
        <time>2022-11-17T10:16:54Z</time>
      </trkpt>
      <trkpt lat="44.63198" lon="5.24993">
        <ele>909</ele>
        <time>2022-11-17T10:16:54Z</time>
      </trkpt>
      <trkpt lat="44.63181" lon="5.25023">
        <ele>906</ele>
        <time>2022-11-17T10:16:54Z</time>
      </trkpt>
      <trkpt lat="44.63174" lon="5.2503">
        <ele>904</ele>
        <time>2022-11-17T10:16:54Z</time>
      </trkpt>
      <trkpt lat="44.6316" lon="5.25057">
        <ele>902</ele>
        <time>2022-11-17T10:16:54Z</time>
      </trkpt>
      <trkpt lat="44.63101" lon="5.25104">
        <ele>897</ele>
        <time>2022-11-17T10:16:54Z</time>
      </trkpt>
      <trkpt lat="44.63093" lon="5.25118">
        <ele>894</ele>
        <time>2022-11-17T10:16:54Z</time>
      </trkpt>
      <trkpt lat="44.63088" lon="5.25133">
        <ele>891</ele>
        <time>2022-11-17T10:16:54Z</time>
      </trkpt>
      <trkpt lat="44.63078" lon="5.2519">
        <ele>888</ele>
        <time>2022-11-17T10:16:54Z</time>
      </trkpt>
      <trkpt lat="44.63077" lon="5.25193">
        <ele>886</ele>
        <time>2022-11-17T10:16:54Z</time>
      </trkpt>
      <trkpt lat="44.6309" lon="5.25126">
        <ele>884</ele>
        <time>2022-11-17T10:16:54Z</time>
      </trkpt>
      <trkpt lat="44.63096" lon="5.25109">
        <ele>884</ele>
        <time>2022-11-17T10:16:54Z</time>
      </trkpt>
      <trkpt lat="44.63156" lon="5.2506">
        <ele>886</ele>
        <time>2022-11-17T10:16:54Z</time>
      </trkpt>
      <trkpt lat="44.63174" lon="5.2503">
        <ele>887</ele>
        <time>2022-11-17T10:16:54Z</time>
      </trkpt>
      <trkpt lat="44.63181" lon="5.25023">
        <ele>889</ele>
        <time>2022-11-17T10:16:54Z</time>
      </trkpt>
      <trkpt lat="44.63195" lon="5.25001">
        <ele>890</ele>
        <time>2022-11-17T10:16:54Z</time>
      </trkpt>
      <trkpt lat="44.63198" lon="5.24986">
        <ele>892</ele>
        <time>2022-11-17T10:16:54Z</time>
      </trkpt>
      <trkpt lat="44.63229" lon="5.24946">
        <ele>895</ele>
        <time>2022-11-17T10:16:54Z</time>
      </trkpt>
      <trkpt lat="44.63231" lon="5.24934">
        <ele>898</ele>
        <time>2022-11-17T10:16:54Z</time>
      </trkpt>
      <trkpt lat="44.63244" lon="5.24915">
        <ele>901</ele>
        <time>2022-11-17T10:16:54Z</time>
      </trkpt>
      <trkpt lat="44.63252" lon="5.24907">
        <ele>904</ele>
        <time>2022-11-17T10:16:54Z</time>
      </trkpt>
      <trkpt lat="44.63256" lon="5.24888">
        <ele>907</ele>
        <time>2022-11-17T10:16:54Z</time>
      </trkpt>
      <trkpt lat="44.63306" lon="5.24827">
        <ele>913</ele>
        <time>2022-11-17T10:16:54Z</time>
      </trkpt>
      <trkpt lat="44.63329" lon="5.24812">
        <ele>919</ele>
        <time>2022-11-17T10:16:54Z</time>
      </trkpt>
      <trkpt lat="44.63392" lon="5.24797">
        <ele>926</ele>
        <time>2022-11-17T10:16:54Z</time>
      </trkpt>
      <trkpt lat="44.63468" lon="5.24804">
        <ele>935</ele>
      </trkpt>
      <trkpt lat="44.63543" lon="5.2481">
        <ele>945</ele>
        <time>2022-11-17T10:16:54Z</time>
      </trkpt>
      <trkpt lat="44.63568" lon="5.24822">
        <ele>951</ele>
        <time>2022-11-17T10:16:54Z</time>
      </trkpt>
      <trkpt lat="44.63636" lon="5.24824">
        <ele>958</ele>
      </trkpt>
      <trkpt lat="44.63704" lon="5.24825">
        <ele>966</ele>
        <time>2022-11-17T10:16:54Z</time>
      </trkpt>
      <trkpt lat="44.63713" lon="5.24871">
        <ele>970</ele>
        <time>2022-11-17T10:16:54Z</time>
      </trkpt>
      <trkpt lat="44.63731" lon="5.24891">
        <ele>985</ele>
        <time>2022-11-17T10:16:54Z</time>
      </trkpt>
      <trkpt lat="44.63776" lon="5.24903">
        <ele>988</ele>
      </trkpt>
      <trkpt lat="44.63821" lon="5.24915">
        <ele>992</ele>
        <time>2022-11-17T10:16:54Z</time>
      </trkpt>
      <trkpt lat="44.63853" lon="5.2497">
        <ele>995</ele>
        <time>2022-11-17T10:16:54Z</time>
      </trkpt>
      <trkpt lat="44.63866" lon="5.25008">
        <ele>998</ele>
        <time>2022-11-17T10:16:54Z</time>
      </trkpt>
      <trkpt lat="44.63868" lon="5.24989">
        <ele>999</ele>
        <time>2022-11-17T10:16:54Z</time>
      </trkpt>
      <trkpt lat="44.63858" lon="5.24935">
        <ele>1001</ele>
        <time>2022-11-17T10:16:54Z</time>
      </trkpt>
      <trkpt lat="44.6387" lon="5.24911">
        <ele>1002</ele>
        <time>2022-11-17T10:16:54Z</time>
      </trkpt>
      <trkpt lat="44.63883" lon="5.24897">
        <ele>1004</ele>
        <time>2022-11-17T10:16:54Z</time>
      </trkpt>
      <trkpt lat="44.63888" lon="5.24887">
        <ele>1005</ele>
        <time>2022-11-17T10:16:54Z</time>
      </trkpt>
      <trkpt lat="44.6392" lon="5.24838">
        <ele>1007</ele>
      </trkpt>
      <trkpt lat="44.63952" lon="5.24789">
        <ele>1009</ele>
        <time>2022-11-17T10:16:54Z</time>
      </trkpt>
      <trkpt lat="44.63984" lon="5.24705">
        <ele>1014</ele>
        <time>2022-11-17T10:16:54Z</time>
      </trkpt>
      <trkpt lat="44.64038" lon="5.24644">
        <ele>1020</ele>
      </trkpt>
      <trkpt lat="44.64091" lon="5.24582">
        <ele>1027</ele>
        <time>2022-11-17T10:16:54Z</time>
      </trkpt>
      <trkpt lat="44.641" lon="5.24558">
        <ele>1032</ele>
        <time>2022-11-17T10:16:54Z</time>
      </trkpt>
      <trkpt lat="44.64109" lon="5.24558">
        <ele>1035</ele>
        <time>2022-11-17T10:16:54Z</time>
      </trkpt>
      <trkpt lat="44.64111" lon="5.24548">
        <ele>1037</ele>
        <time>2022-11-17T10:16:54Z</time>
      </trkpt>
      <trkpt lat="44.64184" lon="5.24527">
        <ele>1039</ele>
      </trkpt>
      <trkpt lat="44.64257" lon="5.24506">
        <ele>1037</ele>
      </trkpt>
      <trkpt lat="44.64329" lon="5.24485">
        <ele>1034</ele>
      </trkpt>
      <trkpt lat="44.64402" lon="5.24464">
        <ele>1027</ele>
        <time>2022-11-17T10:16:54Z</time>
      </trkpt>
      <trkpt lat="44.64444" lon="5.24426">
        <ele>1024</ele>
      </trkpt>
      <trkpt lat="44.64486" lon="5.24387">
        <ele>1023</ele>
        <time>2022-11-17T10:16:54Z</time>
      </trkpt>
      <trkpt lat="44.64566" lon="5.24352">
        <ele>1018</ele>
      </trkpt>
      <trkpt lat="44.64646" lon="5.24316">
        <ele>1013</ele>
        <time>2022-11-17T10:16:54Z</time>
      </trkpt>
      <trkpt lat="44.64721" lon="5.24257">
        <ele>1010</ele>
      </trkpt>
      <trkpt lat="44.64759" lon="5.24228">
        <ele>1009</ele>
      </trkpt>
      <trkpt lat="44.64796" lon="5.24198">
        <ele>1007</ele>
        <time>2022-11-17T10:16:54Z</time>
      </trkpt>
      <trkpt lat="44.64847" lon="5.24138">
        <ele>1005</ele>
        <time>2022-11-17T10:16:54Z</time>
      </trkpt>
      <trkpt lat="44.64872" lon="5.24078">
        <ele>1002</ele>
        <time>2022-11-17T10:16:54Z</time>
      </trkpt>
      <trkpt lat="44.64922" lon="5.24039">
        <ele>999</ele>
        <time>2022-11-17T10:16:54Z</time>
      </trkpt>
      <trkpt lat="44.64874" lon="5.23966">
        <ele>992</ele>
        <time>2022-11-17T10:16:54Z</time>
      </trkpt>
      <trkpt lat="44.64955" lon="5.23962">
        <ele>982</ele>
        <time>2022-11-17T10:16:54Z</time>
      </trkpt>
      <trkpt lat="44.65014" lon="5.24005">
        <ele>971</ele>
        <time>2022-11-17T10:16:54Z</time>
      </trkpt>
      <trkpt lat="44.65062" lon="5.24012">
        <ele>961</ele>
      </trkpt>
      <trkpt lat="44.6511" lon="5.24018">
        <ele>949</ele>
        <time>2022-11-17T10:16:54Z</time>
      </trkpt>
      <trkpt lat="44.65151" lon="5.24048">
        <ele>940</ele>
        <time>2022-11-17T10:16:54Z</time>
      </trkpt>
      <trkpt lat="44.65173" lon="5.24048">
        <ele>932</ele>
        <time>2022-11-17T10:16:54Z</time>
      </trkpt>
      <trkpt lat="44.65149" lon="5.24115">
        <ele>927</ele>
      </trkpt>
      <trkpt lat="44.65125" lon="5.24181">
        <ele>920</ele>
        <time>2022-11-17T10:16:54Z</time>
      </trkpt>
      <trkpt lat="44.65154" lon="5.24137">
        <ele>916</ele>
      </trkpt>
      <trkpt lat="44.65183" lon="5.24092">
        <ele>912</ele>
      </trkpt>
      <trkpt lat="44.65212" lon="5.24048">
        <ele>907</ele>
      </trkpt>
      <trkpt lat="44.65241" lon="5.24003">
        <ele>899</ele>
        <time>2022-11-17T10:16:54Z</time>
      </trkpt>
      <trkpt lat="44.65229" lon="5.24112">
        <ele>893</ele>
      </trkpt>
      <trkpt lat="44.65216" lon="5.24221">
        <ele>885</ele>
        <time>2022-11-17T10:16:54Z</time>
      </trkpt>
      <trkpt lat="44.6524" lon="5.24291">
        <ele>877</ele>
      </trkpt>
      <trkpt lat="44.65263" lon="5.24361">
        <ele>870</ele>
        <time>2022-11-17T10:16:54Z</time>
      </trkpt>
      <trkpt lat="44.65296" lon="5.2427">
        <ele>861</ele>
        <time>2022-11-17T10:16:54Z</time>
      </trkpt>
      <trkpt lat="44.65303" lon="5.24279">
        <ele>855</ele>
        <time>2022-11-17T10:16:54Z</time>
      </trkpt>
      <trkpt lat="44.6532" lon="5.24282">
        <ele>851</ele>
        <time>2022-11-17T10:16:54Z</time>
      </trkpt>
      <trkpt lat="44.65343" lon="5.24276">
        <ele>848</ele>
        <time>2022-11-17T10:16:54Z</time>
      </trkpt>
      <trkpt lat="44.65359" lon="5.24264">
        <ele>846</ele>
        <time>2022-11-17T10:16:54Z</time>
      </trkpt>
      <trkpt lat="44.65412" lon="5.24183">
        <ele>841</ele>
        <time>2022-11-17T10:16:54Z</time>
      </trkpt>
      <trkpt lat="44.65446" lon="5.24155">
        <ele>838</ele>
        <time>2022-11-17T10:16:54Z</time>
      </trkpt>
      <trkpt lat="44.65492" lon="5.2409">
        <ele>835</ele>
      </trkpt>
      <trkpt lat="44.65538" lon="5.24025">
        <ele>830</ele>
        <time>2022-11-17T10:16:54Z</time>
      </trkpt>
      <trkpt lat="44.6556" lon="5.24009">
        <ele>828</ele>
        <time>2022-11-17T10:16:54Z</time>
      </trkpt>
      <trkpt lat="44.65566" lon="5.24">
        <ele>828</ele>
        <time>2022-11-17T10:16:54Z</time>
      </trkpt>
      <trkpt lat="44.65589" lon="5.2395">
        <ele>826</ele>
        <time>2022-11-17T10:16:54Z</time>
      </trkpt>
      <trkpt lat="44.65629" lon="5.23901">
        <ele>824</ele>
        <time>2022-11-17T10:16:54Z</time>
      </trkpt>
      <trkpt lat="44.65665" lon="5.23874">
        <ele>824</ele>
        <time>2022-11-17T10:16:54Z</time>
      </trkpt>
      <trkpt lat="44.65693" lon="5.23863">
        <ele>825</ele>
        <time>2022-11-17T10:16:54Z</time>
      </trkpt>
      <trkpt lat="44.657" lon="5.23851">
        <ele>826</ele>
        <time>2022-11-17T10:16:54Z</time>
      </trkpt>
      <trkpt lat="44.65703" lon="5.2384">
        <ele>827</ele>
        <time>2022-11-17T10:16:54Z</time>
      </trkpt>
      <trkpt lat="44.657" lon="5.23815">
        <ele>826</ele>
        <time>2022-11-17T10:16:54Z</time>
      </trkpt>
      <trkpt lat="44.65704" lon="5.23794">
        <ele>825</ele>
        <time>2022-11-17T10:16:54Z</time>
      </trkpt>
      <trkpt lat="44.65729" lon="5.23739">
        <ele>826</ele>
        <time>2022-11-17T10:16:54Z</time>
      </trkpt>
      <trkpt lat="44.65768" lon="5.23711">
        <ele>829</ele>
        <time>2022-11-17T10:16:54Z</time>
      </trkpt>
      <trkpt lat="44.65811" lon="5.23591">
        <ele>830</ele>
        <time>2022-11-17T10:16:54Z</time>
      </trkpt>
      <trkpt lat="44.65833" lon="5.23569">
        <ele>832</ele>
        <time>2022-11-17T10:16:54Z</time>
      </trkpt>
      <trkpt lat="44.65898" lon="5.23466">
        <ele>832</ele>
        <time>2022-11-17T10:16:54Z</time>
      </trkpt>
      <trkpt lat="44.65927" lon="5.23441">
        <ele>833</ele>
        <time>2022-11-17T10:16:54Z</time>
      </trkpt>
      <trkpt lat="44.65978" lon="5.23417">
        <ele>838</ele>
        <time>2022-11-17T10:16:54Z</time>
      </trkpt>
      <trkpt lat="44.65997" lon="5.23395">
        <ele>840</ele>
        <time>2022-11-17T10:16:54Z</time>
      </trkpt>
      <trkpt lat="44.66035" lon="5.23315">
        <ele>841</ele>
        <time>2022-11-17T10:16:54Z</time>
      </trkpt>
      <trkpt lat="44.66113" lon="5.23233">
        <ele>848</ele>
        <time>2022-11-17T10:16:54Z</time>
      </trkpt>
      <trkpt lat="44.66165" lon="5.23133">
        <ele>849</ele>
        <time>2022-11-17T10:16:54Z</time>
      </trkpt>
      <trkpt lat="44.66304" lon="5.23">
        <ele>854</ele>
        <time>2022-11-17T10:16:54Z</time>
      </trkpt>
      <trkpt lat="44.66394" lon="5.22942">
        <ele>863</ele>
        <time>2022-11-17T10:16:54Z</time>
      </trkpt>
      <trkpt lat="44.66416" lon="5.2291">
        <ele>867</ele>
        <time>2022-11-17T10:16:54Z</time>
      </trkpt>
      <trkpt lat="44.66433" lon="5.22869">
        <ele>868</ele>
        <time>2022-11-17T10:16:54Z</time>
      </trkpt>
      <trkpt lat="44.66451" lon="5.22861">
        <ele>868</ele>
        <time>2022-11-17T10:16:54Z</time>
      </trkpt>
      <trkpt lat="44.66471" lon="5.22864">
        <ele>868</ele>
        <time>2022-11-17T10:16:54Z</time>
      </trkpt>
      <trkpt lat="44.6651" lon="5.22851">
        <ele>866</ele>
        <time>2022-11-17T10:16:54Z</time>
      </trkpt>
      <trkpt lat="44.66544" lon="5.22815">
        <ele>863</ele>
        <time>2022-11-17T10:16:54Z</time>
      </trkpt>
      <trkpt lat="44.6653" lon="5.22789">
        <ele>858</ele>
        <time>2022-11-17T10:16:54Z</time>
      </trkpt>
      <trkpt lat="44.66533" lon="5.22777">
        <ele>853</ele>
        <time>2022-11-17T10:16:54Z</time>
      </trkpt>
      <trkpt lat="44.6672" lon="5.22556">
        <ele>829</ele>
        <time>2022-11-17T10:16:54Z</time>
      </trkpt>
      <trkpt lat="44.66738" lon="5.22507">
        <ele>816</ele>
        <time>2022-11-17T10:16:54Z</time>
      </trkpt>
      <trkpt lat="44.66727" lon="5.22483">
        <ele>808</ele>
        <time>2022-11-17T10:16:54Z</time>
      </trkpt>
      <trkpt lat="44.66662" lon="5.22403">
        <ele>796</ele>
        <time>2022-11-17T10:16:54Z</time>
      </trkpt>
      <trkpt lat="44.66651" lon="5.22405">
        <ele>787</ele>
        <time>2022-11-17T10:16:54Z</time>
      </trkpt>
      <trkpt lat="44.66671" lon="5.22479">
        <ele>780</ele>
        <time>2022-11-17T10:16:54Z</time>
      </trkpt>
      <trkpt lat="44.66683" lon="5.225">
        <ele>776</ele>
        <time>2022-11-17T10:16:54Z</time>
      </trkpt>
      <trkpt lat="44.66673" lon="5.22517">
        <ele>773</ele>
        <time>2022-11-17T10:16:54Z</time>
      </trkpt>
      <trkpt lat="44.66656" lon="5.22536">
        <ele>769</ele>
        <time>2022-11-17T10:16:54Z</time>
      </trkpt>
      <trkpt lat="44.66567" lon="5.22568">
        <ele>763</ele>
        <time>2022-11-17T10:16:54Z</time>
      </trkpt>
      <trkpt lat="44.66537" lon="5.22566">
        <ele>756</ele>
        <time>2022-11-17T10:16:54Z</time>
      </trkpt>
      <trkpt lat="44.66508" lon="5.22585">
        <ele>752</ele>
        <time>2022-11-17T10:16:54Z</time>
      </trkpt>
      <trkpt lat="44.66489" lon="5.22589">
        <ele>751</ele>
        <time>2022-11-17T10:16:54Z</time>
      </trkpt>
      <trkpt lat="44.66478" lon="5.22585">
        <ele>749</ele>
        <time>2022-11-17T10:16:54Z</time>
      </trkpt>
      <trkpt lat="44.66458" lon="5.22561">
        <ele>746</ele>
        <time>2022-11-17T10:16:54Z</time>
      </trkpt>
      <trkpt lat="44.66451" lon="5.22548">
        <ele>743</ele>
        <time>2022-11-17T10:16:54Z</time>
      </trkpt>
      <trkpt lat="44.66501" lon="5.2254">
        <ele>738</ele>
        <time>2022-11-17T10:16:54Z</time>
      </trkpt>
      <trkpt lat="44.66511" lon="5.2252">
        <ele>733</ele>
        <time>2022-11-17T10:16:54Z</time>
      </trkpt>
      <trkpt lat="44.66527" lon="5.22507">
        <ele>728</ele>
        <time>2022-11-17T10:16:54Z</time>
      </trkpt>
      <trkpt lat="44.66537" lon="5.22471">
        <ele>723</ele>
        <time>2022-11-17T10:16:54Z</time>
      </trkpt>
      <trkpt lat="44.66553" lon="5.2236">
        <ele>712</ele>
        <time>2022-11-17T10:16:54Z</time>
      </trkpt>
      <trkpt lat="44.66538" lon="5.22368">
        <ele>703</ele>
        <time>2022-11-17T10:16:54Z</time>
      </trkpt>
      <trkpt lat="44.66536" lon="5.22354">
        <ele>696</ele>
        <time>2022-11-17T10:16:54Z</time>
      </trkpt>
      <trkpt lat="44.66535" lon="5.22274">
        <ele>689</ele>
        <time>2022-11-17T10:16:54Z</time>
      </trkpt>
      <trkpt lat="44.66519" lon="5.22303">
        <ele>680</ele>
        <time>2022-11-17T10:16:54Z</time>
      </trkpt>
      <trkpt lat="44.66518" lon="5.22291">
        <ele>674</ele>
        <time>2022-11-17T10:16:54Z</time>
      </trkpt>
      <trkpt lat="44.66526" lon="5.22262">
        <ele>671</ele>
        <time>2022-11-17T10:16:54Z</time>
      </trkpt>
      <trkpt lat="44.66525" lon="5.22197">
        <ele>668</ele>
        <time>2022-11-17T10:16:54Z</time>
      </trkpt>
      <trkpt lat="44.66515" lon="5.22177">
        <ele>665</ele>
        <time>2022-11-17T10:16:54Z</time>
      </trkpt>
      <trkpt lat="44.665" lon="5.22162">
        <ele>642</ele>
        <time>2022-11-17T10:16:54Z</time>
      </trkpt>
      <trkpt lat="44.665" lon="5.22149">
        <ele>642</ele>
        <time>2022-11-17T10:16:54Z</time>
      </trkpt>
      <trkpt lat="44.66513" lon="5.22102">
        <ele>644</ele>
        <time>2022-11-17T10:16:54Z</time>
      </trkpt>
      <trkpt lat="44.66511" lon="5.2208">
        <ele>647</ele>
        <time>2022-11-17T10:16:54Z</time>
      </trkpt>
      <trkpt lat="44.66503" lon="5.22058">
        <ele>648</ele>
        <time>2022-11-17T10:16:54Z</time>
      </trkpt>
      <trkpt lat="44.66468" lon="5.21997">
        <ele>647</ele>
        <time>2022-11-17T10:16:54Z</time>
      </trkpt>
      <trkpt lat="44.66466" lon="5.21971">
        <ele>646</ele>
        <time>2022-11-17T10:16:54Z</time>
      </trkpt>
      <trkpt lat="44.66483" lon="5.21819">
        <ele>646</ele>
        <time>2022-11-17T10:16:54Z</time>
      </trkpt>
      <trkpt lat="44.66508" lon="5.21737">
        <ele>646</ele>
        <time>2022-11-17T10:16:54Z</time>
      </trkpt>
      <trkpt lat="44.66541" lon="5.21675">
        <ele>649</ele>
        <time>2022-11-17T10:16:54Z</time>
      </trkpt>
      <trkpt lat="44.6658" lon="5.21627">
        <ele>652</ele>
        <time>2022-11-17T10:16:54Z</time>
      </trkpt>
      <trkpt lat="44.66588" lon="5.21571">
        <ele>653</ele>
        <time>2022-11-17T10:16:54Z</time>
      </trkpt>
      <trkpt lat="44.66588" lon="5.21535">
        <ele>653</ele>
        <time>2022-11-17T10:16:54Z</time>
      </trkpt>
      <trkpt lat="44.66585" lon="5.21503">
        <ele>652</ele>
        <time>2022-11-17T10:16:54Z</time>
      </trkpt>
      <trkpt lat="44.66588" lon="5.2149">
        <ele>651</ele>
        <time>2022-11-17T10:16:54Z</time>
      </trkpt>
      <trkpt lat="44.66618" lon="5.21438">
        <ele>651</ele>
        <time>2022-11-17T10:16:54Z</time>
      </trkpt>
      <trkpt lat="44.66661" lon="5.21403">
        <ele>655</ele>
        <time>2022-11-17T10:16:54Z</time>
      </trkpt>
      <trkpt lat="44.66703" lon="5.21321">
        <ele>659</ele>
        <time>2022-11-17T10:16:54Z</time>
      </trkpt>
      <trkpt lat="44.66725" lon="5.21309">
        <ele>661</ele>
        <time>2022-11-17T10:16:54Z</time>
      </trkpt>
      <trkpt lat="44.66768" lon="5.2131">
        <ele>666</ele>
        <time>2022-11-17T10:16:54Z</time>
      </trkpt>
      <trkpt lat="44.66788" lon="5.21275">
        <ele>670</ele>
        <time>2022-11-17T10:16:54Z</time>
      </trkpt>
      <trkpt lat="44.66794" lon="5.21207">
        <ele>672</ele>
        <time>2022-11-17T10:16:54Z</time>
      </trkpt>
      <trkpt lat="44.66807" lon="5.21156">
        <ele>674</ele>
        <time>2022-11-17T10:16:54Z</time>
      </trkpt>
      <trkpt lat="44.66833" lon="5.21137">
        <ele>678</ele>
        <time>2022-11-17T10:16:54Z</time>
      </trkpt>
      <trkpt lat="44.66843" lon="5.21114">
        <ele>681</ele>
        <time>2022-11-17T10:16:54Z</time>
      </trkpt>
      <trkpt lat="44.66848" lon="5.21089">
        <ele>682</ele>
        <time>2022-11-17T10:16:54Z</time>
      </trkpt>
      <trkpt lat="44.66928" lon="5.2104">
        <ele>687</ele>
      </trkpt>
      <trkpt lat="44.67007" lon="5.2099">
        <ele>692</ele>
        <time>2022-11-17T10:16:54Z</time>
      </trkpt>
      <trkpt lat="44.67043" lon="5.21015">
        <ele>694</ele>
        <time>2022-11-17T10:16:54Z</time>
      </trkpt>
      <trkpt lat="44.67069" lon="5.21109">
        <ele>698</ele>
        <time>2022-11-17T10:16:54Z</time>
      </trkpt>
      <trkpt lat="44.67132" lon="5.21205">
        <ele>696</ele>
      </trkpt>
      <trkpt lat="44.67195" lon="5.21301">
        <ele>693</ele>
        <time>2022-11-17T10:16:54Z</time>
      </trkpt>
      <trkpt lat="44.67249" lon="5.21403">
        <ele>691</ele>
        <time>2022-11-17T10:16:54Z</time>
      </trkpt>
      <trkpt lat="44.67254" lon="5.2129">
        <ele>681</ele>
      </trkpt>
      <trkpt lat="44.67259" lon="5.21177">
        <ele>663</ele>
      </trkpt>
      <trkpt lat="44.67263" lon="5.21064">
        <ele>640</ele>
      </trkpt>
      <trkpt lat="44.67268" lon="5.20951">
        <ele>612</ele>
        <time>2022-11-17T10:16:54Z</time>
      </trkpt>
      <trkpt lat="44.67288" lon="5.20877">
        <ele>588</ele>
      </trkpt>
      <trkpt lat="44.67307" lon="5.20802">
        <ele>567</ele>
        <time>2022-11-17T10:16:54Z</time>
      </trkpt>
      <trkpt lat="44.67288" lon="5.20721">
        <ele>546</ele>
      </trkpt>
      <trkpt lat="44.67268" lon="5.20639">
        <ele>526</ele>
      </trkpt>
      <trkpt lat="44.67249" lon="5.20558">
        <ele>509</ele>
      </trkpt>
      <trkpt lat="44.6723" lon="5.20476">
        <ele>492</ele>
      </trkpt>
      <trkpt lat="44.6721" lon="5.20395">
        <ele>475</ele>
      </trkpt>
      <trkpt lat="44.67191" lon="5.20314">
        <ele>459</ele>
      </trkpt>
      <trkpt lat="44.67171" lon="5.20232">
        <ele>444</ele>
      </trkpt>
      <trkpt lat="44.67152" lon="5.20151">
        <ele>431</ele>
        <time>2022-11-17T10:16:54Z</time>
      </trkpt>
      <trkpt lat="44.67138" lon="5.20124">
        <ele>421</ele>
        <time>2022-11-17T10:16:54Z</time>
      </trkpt>
      <trkpt lat="44.67131" lon="5.2013">
        <ele>415</ele>
        <time>2022-11-17T10:16:54Z</time>
      </trkpt>
      <trkpt lat="44.67109" lon="5.20139">
        <ele>410</ele>
        <time>2022-11-17T10:16:54Z</time>
      </trkpt>
      <trkpt lat="44.67092" lon="5.20138">
        <ele>407</ele>
        <time>2022-11-17T10:16:54Z</time>
      </trkpt>
      <trkpt lat="44.67079" lon="5.20121">
        <ele>404</ele>
        <time>2022-11-17T10:16:54Z</time>
      </trkpt>
      <trkpt lat="44.67078" lon="5.20106">
        <ele>402</ele>
        <time>2022-11-17T10:16:54Z</time>
      </trkpt>
      <trkpt lat="44.67095" lon="5.20061">
        <ele>401</ele>
        <time>2022-11-17T10:16:54Z</time>
      </trkpt>
      <trkpt lat="44.67098" lon="5.20037">
        <ele>399</ele>
        <time>2022-11-17T10:16:54Z</time>
      </trkpt>
      <trkpt lat="44.67098" lon="5.20027">
        <ele>398</ele>
        <time>2022-11-17T10:16:54Z</time>
      </trkpt>
      <trkpt lat="44.67134" lon="5.19982">
        <ele>397</ele>
        <time>2022-11-17T10:16:54Z</time>
      </trkpt>
      <trkpt lat="44.67159" lon="5.19962">
        <ele>396</ele>
        <time>2022-11-17T10:16:54Z</time>
      </trkpt>
      <trkpt lat="44.672" lon="5.19945">
        <ele>393</ele>
        <time>2022-11-17T10:16:54Z</time>
      </trkpt>
      <trkpt lat="44.67229" lon="5.19911">
        <ele>391</ele>
        <time>2022-11-17T10:16:54Z</time>
      </trkpt>
      <trkpt lat="44.67286" lon="5.19869">
        <ele>388</ele>
      </trkpt>
      <trkpt lat="44.67343" lon="5.19827">
        <ele>384</ele>
        <time>2022-11-17T10:16:54Z</time>
      </trkpt>
      <trkpt lat="44.67349" lon="5.19818">
        <ele>382</ele>
        <time>2022-11-17T10:16:54Z</time>
      </trkpt>
      <trkpt lat="44.67354" lon="5.19804">
        <ele>380</ele>
        <time>2022-11-17T10:16:54Z</time>
      </trkpt>
      <trkpt lat="44.67358" lon="5.19754">
        <ele>378</ele>
        <time>2022-11-17T10:16:54Z</time>
      </trkpt>
      <trkpt lat="44.6738" lon="5.19712">
        <ele>376</ele>
        <time>2022-11-17T10:16:54Z</time>
      </trkpt>
      <trkpt lat="44.67386" lon="5.19674">
        <ele>375</ele>
        <time>2022-11-17T10:16:54Z</time>
      </trkpt>
      <trkpt lat="44.67391" lon="5.19661">
        <ele>373</ele>
        <time>2022-11-17T10:16:54Z</time>
      </trkpt>
      <trkpt lat="44.67407" lon="5.1964">
        <ele>372</ele>
        <time>2022-11-17T10:16:54Z</time>
      </trkpt>
      <trkpt lat="44.67424" lon="5.19628">
        <ele>371</ele>
        <time>2022-11-17T10:16:54Z</time>
      </trkpt>
      <trkpt lat="44.67432" lon="5.19627">
        <ele>370</ele>
        <time>2022-11-17T10:16:54Z</time>
      </trkpt>
      <trkpt lat="44.67461" lon="5.19634">
        <ele>369</ele>
        <time>2022-11-17T10:16:54Z</time>
      </trkpt>
      <trkpt lat="44.67492" lon="5.19629">
        <ele>368</ele>
        <time>2022-11-17T10:16:54Z</time>
      </trkpt>
      <trkpt lat="44.6754" lon="5.19591">
        <ele>366</ele>
        <time>2022-11-17T10:16:54Z</time>
      </trkpt>
      <trkpt lat="44.67548" lon="5.19581">
        <ele>365</ele>
        <time>2022-11-17T10:16:54Z</time>
      </trkpt>
      <trkpt lat="44.67563" lon="5.19534">
        <ele>365</ele>
        <time>2022-11-17T10:16:54Z</time>
      </trkpt>
      <trkpt lat="44.67577" lon="5.19522">
        <ele>366</ele>
        <time>2022-11-17T10:16:54Z</time>
      </trkpt>
      <trkpt lat="44.67606" lon="5.1952">
        <ele>365</ele>
        <time>2022-11-17T10:16:54Z</time>
      </trkpt>
      <trkpt lat="44.67617" lon="5.19516">
        <ele>363</ele>
        <time>2022-11-17T10:16:54Z</time>
      </trkpt>
      <trkpt lat="44.67681" lon="5.19519">
        <ele>360</ele>
        <time>2022-11-17T10:16:54Z</time>
      </trkpt>
      <trkpt lat="44.67742" lon="5.19499">
        <ele>356</ele>
      </trkpt>
      <trkpt lat="44.67804" lon="5.19478">
        <ele>353</ele>
      </trkpt>
      <trkpt lat="44.67865" lon="5.19458">
        <ele>350</ele>
      </trkpt>
      <trkpt lat="44.67926" lon="5.19437">
        <ele>348</ele>
        <time>2022-11-17T10:16:54Z</time>
      </trkpt>
      <trkpt lat="44.67945" lon="5.19439">
        <ele>347</ele>
        <time>2022-11-17T10:16:54Z</time>
      </trkpt>
      <trkpt lat="44.67953" lon="5.19443">
        <ele>346</ele>
        <time>2022-11-17T10:16:54Z</time>
      </trkpt>
      <trkpt lat="44.6803" lon="5.19499">
        <ele>344</ele>
        <time>2022-11-17T10:16:54Z</time>
      </trkpt>
      <trkpt lat="44.68093" lon="5.19528">
        <ele>341</ele>
      </trkpt>
      <trkpt lat="44.68155" lon="5.19557">
        <ele>340</ele>
      </trkpt>
      <trkpt lat="44.68218" lon="5.19587">
        <ele>340</ele>
      </trkpt>
      <trkpt lat="44.6828" lon="5.19616">
        <ele>338</ele>
        <time>2022-11-17T10:16:54Z</time>
      </trkpt>
      <trkpt lat="44.6833" lon="5.19624">
        <ele>335</ele>
        <time>2022-11-17T10:16:54Z</time>
      </trkpt>
      <trkpt lat="44.68409" lon="5.19648">
        <ele>333</ele>
      </trkpt>
      <trkpt lat="44.68489" lon="5.19671">
        <ele>331</ele>
      </trkpt>
      <trkpt lat="44.68568" lon="5.19695">
        <ele>329</ele>
      </trkpt>
      <trkpt lat="44.68648" lon="5.19719">
        <ele>326</ele>
      </trkpt>
      <trkpt lat="44.68727" lon="5.19743">
        <ele>323</ele>
      </trkpt>
      <trkpt lat="44.68806" lon="5.19766">
        <ele>321</ele>
      </trkpt>
      <trkpt lat="44.68886" lon="5.1979">
        <ele>319</ele>
      </trkpt>
      <trkpt lat="44.68965" lon="5.19814">
        <ele>315</ele>
        <time>2022-11-17T10:16:54Z</time>
      </trkpt>
      <trkpt lat="44.69003" lon="5.19808">
        <ele>313</ele>
        <time>2022-11-17T10:16:54Z</time>
      </trkpt>
      <trkpt lat="44.6903" lon="5.19826">
        <ele>311</ele>
        <time>2022-11-17T10:16:54Z</time>
      </trkpt>
      <trkpt lat="44.69063" lon="5.19832">
        <ele>308</ele>
        <time>2022-11-17T10:16:54Z</time>
      </trkpt>
      <trkpt lat="44.69134" lon="5.19828">
        <ele>306</ele>
        <time>2022-11-17T10:16:54Z</time>
      </trkpt>
      <trkpt lat="44.69157" lon="5.19837">
        <ele>304</ele>
        <time>2022-11-17T10:16:54Z</time>
      </trkpt>
      <trkpt lat="44.69278" lon="5.19852">
        <ele>300</ele>
      </trkpt>
      <trkpt lat="44.69339" lon="5.19859">
        <ele>297</ele>
      </trkpt>
      <trkpt lat="44.69399" lon="5.19866">
        <ele>294</ele>
        <time>2022-11-17T10:16:54Z</time>
      </trkpt>
      <trkpt lat="44.69447" lon="5.1989">
        <ele>292</ele>
        <time>2022-11-17T10:16:54Z</time>
      </trkpt>
      <trkpt lat="44.69467" lon="5.1991">
        <ele>289</ele>
        <time>2022-11-17T10:16:54Z</time>
      </trkpt>
      <trkpt lat="44.69473" lon="5.19924">
        <ele>287</ele>
        <time>2022-11-17T10:16:54Z</time>
      </trkpt>
      <trkpt lat="44.69475" lon="5.19957">
        <ele>285</ele>
        <time>2022-11-17T10:16:54Z</time>
      </trkpt>
      <trkpt lat="44.69477" lon="5.19969">
        <ele>284</ele>
        <time>2022-11-17T10:16:54Z</time>
      </trkpt>
      <trkpt lat="44.6949" lon="5.19994">
        <ele>283</ele>
        <time>2022-11-17T10:16:54Z</time>
      </trkpt>
      <trkpt lat="44.695" lon="5.20007">
        <ele>281</ele>
        <time>2022-11-17T10:16:54Z</time>
      </trkpt>
      <trkpt lat="44.69512" lon="5.19897">
        <ele>278</ele>
        <time>2022-11-17T10:16:54Z</time>
      </trkpt>
      <trkpt lat="44.6951" lon="5.19738">
        <ele>274</ele>
        <time>2022-11-17T10:16:54Z</time>
      </trkpt>
      <trkpt lat="44.69519" lon="5.19715">
        <ele>271</ele>
        <time>2022-11-17T10:16:54Z</time>
      </trkpt>
      <trkpt lat="44.69584" lon="5.19713">
        <ele>267</ele>
      </trkpt>
      <trkpt lat="44.69649" lon="5.1971">
        <ele>266</ele>
        <time>2022-11-17T10:16:54Z</time>
      </trkpt>
      <trkpt lat="44.69654" lon="5.19726">
        <ele>266</ele>
        <time>2022-11-17T10:16:54Z</time>
      </trkpt>
      <trkpt lat="44.69663" lon="5.19726">
        <ele>266</ele>
        <time>2022-11-17T10:16:54Z</time>
      </trkpt>
      <trkpt lat="44.69676" lon="5.19864">
        <ele>266</ele>
        <time>2022-11-17T10:16:54Z</time>
      </trkpt>
      <trkpt lat="44.69675" lon="5.19878">
        <ele>267</ele>
        <time>2022-11-17T10:16:54Z</time>
      </trkpt>
      <trkpt lat="44.69684" lon="5.19882">
        <ele>267</ele>
        <time>2022-11-17T10:16:54Z</time>
      </trkpt>
      <trkpt lat="44.69692" lon="5.19891">
        <ele>268</ele>
        <time>2022-11-17T10:16:54Z</time>
      </trkpt>
      <trkpt lat="44.69689" lon="5.19956">
        <ele>268</ele>
        <time>2022-11-17T10:16:54Z</time>
      </trkpt>
    </trkseg>
  </trk>
</gpx>